FW1809 Weather Reports


Display with metric or nautical units.
time (UTC)temp
F
wind
direction
speed
MPH
gust
MPH
rain 1hr
in
rain 24hr
in
rain mn
in
humidity
%
barometer
mb
20260504201556 66 116 5.0 14.0 0.00 0.00 0.00 44 1009.5
20260504200101 67 159 5.0 16.0 0.00 0.00 0.00 43 1009.6
20260504194603 67 215 10.0 17.0 0.00 0.00 0.00 41 1009.5
20260504193056 68 190 8.0 22.0 0.00 0.00 0.00 40 1009.5
20260504191608 69 135 4.0 15.0 0.00 0.00 0.00 41 1009.4
20260504190051 69 50 5.0 15.0 0.00 0.00 0.00 37 1009.6
20260504184549 69 199 8.0 15.0 0.00 0.00 0.00 37 1009.6
20260504183046 69 219 9.0 17.0 0.00 0.00 0.00 36 1009.7
20260504181548 68 166 4.0 14.0 0.00 0.00 0.00 37 1009.9
20260504180043 68 200 8.0 16.0 0.00 0.00 0.00 38 1010.1
20260504174541 68 159 5.0 16.0 0.00 0.00 0.00 38 1010.3
20260504173039 67 171 8.0 18.0 0.00 0.00 0.00 37 1010.4
20260504171546 67 184 6.0 15.0 0.00 0.00 0.00 39 1010.5
20260504090125 38 226 1.0 4.0 0.00 0.00 0.00 78 1012.2
20260504081508 38 205 1.0 3.0 0.00 0.00 0.00 80 1011.8
20260504044542 38 231 0.0 0.0 0.00 0.00 0.00 68 1011.9
20260504043047 38 231 0.0 0.0 0.00 0.00 0.00 67 1012.1
20260504041539 38 231 0.0 0.0 0.00 0.00 0.00 67 1012.0
20260504040036 38 231 0.0 0.0 0.00 0.00 0.00 67 1011.8
20260504034535 39 231 0.0 0.0 0.00 0.00 0.00 65 1011.8
20260504033037 39 231 0.0 1.0 0.00 0.00 0.00 66 1011.8
20260504031535 39 231 0.0 2.0 0.00 0.00 0.00 65 1011.7
20260504030034 40 232 0.0 2.0 0.00 0.00 0.00 64 1011.7
20260504024535 40 232 0.0 0.0 0.00 0.00 0.00 63 1011.6
20260504023031 41 232 0.0 0.0 0.00 0.00 0.00 63 1011.6
20260504021533 41 232 0.0 0.0 0.00 0.00 0.00 62 1011.4
20260504020031 42 232 0.0 0.0 0.00 0.00 0.00 61 1011.3
20260504014537 42 232 0.0 0.0 0.00 0.00 0.00 59 1011.3
20260504013027 43 232 0.0 0.0 0.00 0.00 0.00 58 1011.0
20260504011527 43 232 0.0 0.0 0.00 0.00 0.00 56 1010.9
20260504010026 44 232 0.0 0.0 0.00 0.00 0.00 56 1010.7
20260504004524 45 232 0.0 0.0 0.00 0.00 0.00 54 1010.4
20260504003030 47 232 0.0 0.0 0.00 0.00 0.00 52 1010.2
20260504001522 48 232 0.0 2.0 0.00 0.00 0.00 50 1010.0
20260504000021 49 241 0.0 4.0 0.00 0.00 0.00 49 1009.9
20260503234521 50 215 2.0 6.0 0.00 0.00 0.00 45 1009.7
20260503233020 51 198 1.0 8.0 0.00 0.00 0.00 43 1009.7
20260503231523 51 263 2.0 10.0 0.00 0.00 0.00 43 1009.7
20260503230019 51 243 4.0 11.0 0.00 0.00 0.00 43 1009.5
20260503224520 52 281 3.0 10.0 0.00 0.00 0.00 41 1009.3
20260503223019 52 242 1.0 14.0 0.00 0.00 0.00 42 1009.1
20260503221519 53 238 1.0 11.0 0.00 0.00 0.00 42 1009.1
20260503220024 53 347 2.0 10.0 0.00 0.00 0.00 41 1009.1
20260503214525 53 232 6.0 23.0 0.00 0.00 0.00 40 1009.2
20260503213017 52 149 5.0 13.0 0.00 0.00 0.00 43 1008.9
20260503211515 52 235 6.0 16.0 0.00 0.00 0.00 41 1008.8
20260503210014 53 194 6.0 19.0 0.00 0.00 0.00 39 1008.6
20260503204614 53 343 5.0 23.0 0.00 0.00 0.00 40 1008.5
20260503203012 53 244 10.0 23.0 0.00 0.00 0.00 42 1008.4